Flag for China Weather past 2 weeks in Kashgar, Xinjiang, China

Now
25 °F

Clear.


Feels Like: 25 °F
Forecast: 10 / 28 °F
Wind: No wind

Location: Kashi Airport

Current Time: Dec 18, 2014 at 8:56:44 PM

Latest Report: Dec 18, 2014 at 8:00 PM


Visibility: 3 mi

Pressure: 30.27 "Hg

Humidity: 59%

Dew point: 12 °F

Location of KashgarLocation

Historic Weather in Kashgar — Graph

°F

Kashgar temperature yesterday

Maximum temperature yesterday: 28 °F (at 2:00 PM)
Minimum temperature yesterday: 10 °F (at 9:00 AM)
Average temperature yesterday: 18 °F

Past Weeks' High & Low Weather Summary

 TemperatureHumidityPressure
High46 °F (Dec 8, 6:00 PM)93% (Dec 10, 4:00 AM)30.80 "Hg (Dec 10, 4:00 AM)
Low7 °F (Dec 16, 10:00 AM)5% (Dec 8, 5:00 PM)29.95 "Hg (Dec 7, 5:00 PM)
Average22 °F71%30.42 "Hg
* Reported Dec 3 7:00 PM — Dec 18 7:00 PM, Kashgar, Weather by CustomWeather, © 2014

Note: Actual official high and low records may vary slightly from our data, if they occured in-between our weather recording intervals... More about our weather records

Advertising

Kashgar weather history for previous 24 hours

 ConditionsComfort  
Time TempWeatherWind HumidityBarometerVisibility
7:00 PM
Dec 18
27 °FClear.1 mph54%30.27 "Hg4 mi
6:00 PM28 °FClear.No wind51%30.27 "Hg4 mi
5:00 PM28 °FClear.No wind55%30.27 "Hg4 mi
4:00 PM28 °FClear.No wind55%30.27 "Hg4 mi
3:00 PM28 °FClear.No wind55%30.33 "Hg4 mi
2:00 PM25 °FClear.No wind59%30.36 "Hg4 mi
1:00 PM25 °FClear.No wind59%30.36 "Hg3 mi
12:00 PM18 °FClear.3 mph73%30.36 "Hg3 mi
11:00 AM14 °FClear.8 mph79%30.33 "Hg3 mi
10:00 AM12 °FClear.6 mph79%30.33 "Hg3 mi
9:00 AM12 °FClear.6 mph79%30.33 "Hg3 mi
8:00 AM12 °FClear.6 mph79%30.33 "Hg3 mi
7:00 AM16 °FClear.8 mph73%30.33 "Hg3 mi
6:00 AM16 °FClear.8 mph73%30.36 "Hg3 mi
5:00 AM16 °FClear.6 mph73%30.36 "Hg3 mi
4:00 AM16 °FCold.8 mph73%30.36 "HgN/A
3:00 AM14 °FCold.8 mph79%30.39 "HgN/A
2:00 AM16 °FCold.8 mph73%30.39 "HgN/A
1:00 AM16 °FCold.6 mph73%30.39 "HgN/A
12:00 AM18 °FCold.No wind68%30.42 "HgN/A
11:00 PM
Dec 17
18 °FCold.1 mph73%30.42 "HgN/A
10:00 PM19 °FClear.No wind68%30.42 "Hg4 mi
9:00 PM23 °FClear.3 mph63%30.39 "Hg4 mi
8:00 PM23 °FClear.No wind58%30.39 "Hg4 mi
Weather by CustomWeather, © 2014

See weather overviewHow to use our weather pages